Hourly Data Report for September 12, 2020

BRIER ISLAND
NOVA SCOTIA
Current Station Operator: ECCC - MSC

44°17'09.000" N
66°20'48.000" W
15.80 m
8200604
71988
WVU

Download Data

Hourly Data (September 2020)
Hourly Data Report for September 12, 2020
TIME Temp Definition
°C
Dew Point Definition
°C
Rel Hum Definition
%
Wind Dir Definition
10's deg

Wind Spd Definition
km/h
Visibility Definition
km
Stn Press Definition
kPa
Hmdx Definition


Wind Chill Definition


Weather Definition


00:00 11.4 11.4 100 29 3   102.37     LegendNANA
01:00 11.2 11.2 100 0 1   102.38     LegendNANA
02:00 11.8 10.3 90 30 2   102.38     LegendNANA
03:00 10.9 10.7 98 28 4   102.39     LegendNANA
04:00 11.1 11.1 100   0   102.44     LegendNANA
05:00 11.8 10.5 92 23 5   102.44     LegendNANA
06:00 11.0 9.6 91 26 6   102.51     LegendNANA
07:00 11.8 11.3 97 27 5   102.56     LegendNANA
08:00 13.2 12.5 95 29 5   102.61     LegendNANA
09:00 14.7 11.9 83 0 1   102.64     LegendNANA
10:00 14.3 13.0 92 28 7   102.66     LegendNANA
11:00 14.2 11.5 83 31 6   102.66     LegendNANA
12:00 14.5 12.3 87 32 7   102.64     LegendNANA
13:00 14.6 11.3 81 30 8   102.63     LegendNANA
14:00 15.1 12.0 82 26 8   102.57     LegendNANA
15:00 15.1 11.7 80 24 8   102.55     LegendNANA
16:00 15.7 10.0 69 24 10   102.51     LegendNANA
17:00 14.9 7.9 63 23 11   102.52     LegendNANA
18:00 14.1 10.2 77 23 11   102.52     LegendNANA
19:00 12.6 11.5 93 23 11   102.50     LegendNANA
20:00 12.4 11.5 94 23 13   102.55     LegendNANA
21:00 12.3 11.1 93 23 12   102.54     LegendNANA
22:00 12.5 11.3 92 23 11   102.50     LegendNANA
23:00 12.4 10.8 90 20 9   102.49     LegendNANA

Notes on Data Quality.

Legend

  • E = Estimated
  • M = Missing
  • NA = Not Available*
  • [empty] = Indicates an unobserved value
Date modified: